Location: Unspecified
(48.7170°N, 0.0000°E)
Time: 22:30:01
(UTC+00:00)

ISS - Pass Details

Date: 27 May 2019
Orbit: 408 x 418 km, 51.6° (Epoch: 25 June)

Event Time Altitude Azimuth Distance (km) Brightness Sun altitude
Rises 22:53:39 0° 290° (WNW) 2,363 0.6 -18.5°
Reaches altitude 10° 22:55:47 10° 285° (WNW) 1,499 -0.6 -18.6°
Enters shadow 22:58:37 43° 236° (SW) 596 -3.2 -18.7°
